Regional Weather Roundup
Issued by NWS Jackson, KY

Home | Current Version | Previous Version | Graphics & Text | Print | Product List | Glossary On
Versions: 1 2 3 4 5 6 7 8 9 10 11 12 13 14 15 16 17 18 19 20 21 22 23 24 25 26 27 28 29 30 31 32 33 34 35 36 37 38 39 40 41 42 43 44 45 46 47 48 49 50
000
ASUS43 KJKL 260810
RWRJKL

EAST KENTUCKY HOURLY WEATHER ROUNDUP
NATIONAL WEATHER SERVICE JACKSON KY
400 AM EDT MON SEP 26 2016

NOTE: "FAIR" INDICATES FEW OR NO CLOUDS BELOW 12,000 FEET WITH
NO SIGNIFICANT WEATHER AND/OR OBSTRUCTIONS TO VISIBILITY.

* THESE REPORTS ARE NOT UNDER NWS QUALITY CONTROL AND MAY NOT
  REPORT WEATHER SUCH AS PRECIPITATION AND FOG.

KYZ079-080-083-085-087-088-110-112-115-119-120-260900
...EASTERN KENTUCKY...

CITY           SKY/WX    TMP DP  RH WIND       PRES   REMARKS
JACKSON        CLEAR     69  64  84 CALM      30.03F
LONDON         MOCLDY    67  64  90 CALM      30.03F
SOMERSET*      CLEAR     63  63 100 CALM      30.03F
MONTICELLO*    CLEAR     64  62  93 N8        30.04F
WILLIAMSBURG*  SUNNY     64  64 100 S3        30.02F
MIDDLESBORO*   CLEAR     64  64 100 CALM      30.06S
HARLAN APT*    MOSUNNY   64  63  94 CALM      30.06F
PIKE CO APT*     N/A     68  67  96 SE3       30.03F
BIG SANDY APT* SUNNY     66  65  98 CALM      30.02F
MOREHEAD APT*  SUNNY     66  63  88 SE6       30.01F
ASHLAND*       CLEAR     64  63  94 CALM      29.98F
$$

KYZ035-036-041-042-044-050-067-078-099-260900
...CENTRAL KENTUCKY...

CITY           SKY/WX    TMP DP  RH WIND       PRES   REMARKS
MT STERLING*   CLEAR     63  63 100 SW3       30.01F FOG
FLEMING/MASON* CLEAR     68  64  86 S6        30.00F
DANVILLE*      CLEAR     64  63  94 S5        30.01F
LEXINGTON      CLEAR     69  64  84 S6        29.99F
FRANKFORT      CLEAR     66  63  90 CALM      29.97F
LOUISVILLE     CLEAR     72  66  81 CALM      29.96F
LEBANON*         N/A     70  64  83 S5        29.99F
GLASGOW*       CLEAR    N/A N/A N/A CALM      29.99F HAZE
BOWLING GREEN  CLEAR     68  66  93 CALM      29.98F
$$

KYZ091>093-OHZ055-061-077-WVZ005-015-034-035-042-260900
...SOUTHERN OHIO/WEST VIRGINIA...

CITY           SKY/WX    TMP DP  RH WIND       PRES   REMARKS
COVINGTON      CLEAR     71  65  81 S7        29.97F
COLUMBUS       PTCLDY    63  51  65 SE5       29.97F
DAYTON         PTCLDY    71  63  75 S9        29.97F
WILMINGTON     CLEAR     67  62  84 S7        29.97F
HUNTINGTON     CLEAR     64  62  93 CALM      30.00F
CHARLESTON     CLEAR     61  59  93 CALM      30.01F
PINEVILLE*     CLEAR     62  59  90 MISG      30.13F FOG
BECKLEY        PTCLDY    65  63  93 SE9       30.12F
BLUEFIELD      CLEAR     65  61  87 CALM      30.14F
LOGAN CO APT*    N/A     68  64  88 CALM      30.04F
$$

VAZ002-007-008-TNZ017-027-036-066-071-260900
...SOUTHWEST VIRGINIA/EAST TENNESSEE...

CITY           SKY/WX    TMP DP  RH WIND       PRES   REMARKS
WISE*          CLEAR     70  55  60 S6        30.14S
JONESVILLE*    PTSUNNY   64  63  94 CALM      30.08F
ABINGDON*      PTCLDY    68  65  91 E3        30.11F
BRISTOL        PTCLDY    63  62  97 N3        30.07F
MORRISTOWN*    MOSUNNY   66  63  88 CALM      30.04F
SEVIERVILLE*   SUNNY     64  63  94 CALM      30.04F
KNOXVILLE      CLEAR     71  63  75 CALM      30.03F
OAK RIDGE      CLEAR     69  65  86 CALM      30.05F
CROSSVILLE     MOCLDY    69  62  78 S3        30.08F
NASHVILLE      CLEAR     68  64  87 S5        29.99F
$$

...KEY TO REMARKS...
VSB - VISIBILITY IN MILES
WCI - WIND CHILL INDEX
HX  - HEAT INDEX

$$



USA.gov is the U.S. government's official web portal to all federal, state and local government web resources and services.